Wind_Speed
16 16 17 18 18 19 20 20 19 19 19 20 20 20 19 20 21 21 12 6 7 6 13 15 11 10 9 6 8 10 6 7 7 10 9 10 11 13 13 13 7 9 9 10 8 10 14 17 8 7 12 19 20 20
17 17 17 18 18 18 19 20 20 20 20 20 20 20 19 18 19 16 10 14 8 7 9 21 20 19 15 11 8 5 9 6 5 6 6 5 8 6 10 10 10 6 8 5 4 4 7 12 13 7 8 8 17 19
18 18 18 18 18 18 19 20 20 21 21 20 20 19 18 17 17 13 12 11 16 9 13 16 11 12 11 15 16 6 6 7 3 3 5 5 4 5 8 8 12 7 9 6 9 10 11 10 11 12 13 15 17 17
18 19 19 20 19 19 19 19 20 21 22 21 20 19 18 17 18 17 11 11 11 9 5 5 4 9 5 8 8 12 11 9 7 5 7 7 8 5 6 9 9 11 14 9 8 9 15 4 15 14 15 15 15 16
18 18 20 21 21 20 20 20 21 21 22 22 22 21 19 19 19 17 14 12 9 6 5 9 20 14 8 9 7 7 9 8 6 7 7 7 6 4 5 6 8 7 6 6 7 10 10 13 18 22 15 18 18 19
18 18 18 20 20 23 21 21 22 22 23 23 23 22 20 18 14 6 3 8 5 5 4 4 6 5 7 3 8 9 7 6 6 6 5 5 4 2 3 6 10 11 14 13 7 12 13 15 16 18 17 17 17 17
19 17 18 19 20 22 23 22 22 24 25 24 26 20 15 11 7 6 3 2 2 6 4 5 5 8 4 4 7 6 10 6 6 6 7 8 7 3 5 9 7 8 10 11 11 13 13 13 16 17 18 15 15 16
19 18 18 19 19 21 23 23 23 24 24 26 19 13 8 6 6 8 7 8 5 7 5 4 7 4 9 6 7 5 5 6 7 6 7 7 6 4 6 9 7 10 8 10 13 15 17 17 18 18 19 16 15 14
19 20 21 19 19 21 22 24 24 24 23 17 13 5 2 4 4 3 3 5 5 6 5 4 8 4 2 7 1 3 3 7 4 7 10 5 8 5 6 4 3 6 8 9 11 13 15 16 17 19 19 18 17 9
20 20 20 20 20 21 22 23 24 23 16 13 6 6 3 5 3 3 3 3 5 5 4 5 8 7 2 3 3 3 4 4 4 7 6 5 6 4 3 8 5 4 7 9 11 11 12 10 11 18 19 18 17 12
20 20 21 22 21 20 22 24 23 20 11 6 5 4 7 7 4 5 3 5 5 4 5 6 10 5 4 4 3 3 1 3 4 3 4 3 3 5 6 4 4 4 7 9 8 11 13 14 11 12 15 17 19 10
21 20 20 21 20 19 21 21 17 11 9 10 14 12 6 4 5 5 4 4 6 4 2 4 4 5 1 2 3 1 4 2 4 3 3 3 5 6 3 3 5 7 9 12 11 12 12 15 15 14 13 14 20 10
20 20 20 20 20 20 20 14 14 15 17 5 5 5 4 4 2 6 8 5 5 4 5 4 3 2 1 3 2 1 4 3 3 4 3 3 7 5 4 6 8 8 12 11 13 11 11 16 16 11 14 18 15 8
18 19 20 20 20 19 12 11 13 14 4 4 3 4 5 6 6 8 9 3 2 8 4 4 3 2 3 1 2 4 3 3 4 3 0 4 3 2 3 5 6 9 10 11 12 12 6 10 14 16 14 13 12 5
17 19 20 18 9 6 9 12 11 6 5 4 1 5 7 7 1 8 3 1 2 9 1 1 3 2 3 3 3 3 3 5 2 2 4 6 4 1 2 3 6 8 9 9 14 9 8 10 11 10 12 12 9 5
16 16 4 6 8 10 13 13 8 3 3 3 5 8 9 7 7 5 7 4 1 6 3 1 3 3 3 2 5 5 5 0 3 2 3 7 4 1 3 4 6 8 10 10 10 12 12 11 11 9 7 8 9 7
11 5 6 11 14 17 9 5 4 5 4 4 5 9 11 9 9 4 3 3 8 3 6 2 3 6 3 3 7 5 1 3 4 1 5 8 5 3 3 5 7 9 10 11 9 10 9 8 9 7 2 4 8 6
9 12 14 13 14 10 3 7 5 4 7 7 10 11 3 3 6 6 6 4 3 6 9 2 3 6 4 8 4 6 5 3 6 6 4 5 5 3 2 3 6 10 10 10 9 4 4 5 5 7 7 15 5 8
13 13 9 10 8 4 4 4 5 4 6 9 9 7 9 3 6 7 6 7 9 5 1 2 3 8 7 2 3 3 5 0 4 1 5 8 6 2 1 3 5 4 5 7 6 3 4 5 11 11 9 2 8 9
17 17 16 14 9 3 3 2 2 4 4 5 6 7 7 7 8 5 7 7 7 7 4 2 4 7 3 4 8 10 5 2 4 3 5 6 10 8 5 2 5 6 8 7 5 2 4 5 9 10 9 12 11 13
9 10 8 13 8 7 4 2 3 3 5 5 7 6 4 6 8 9 7 8 7 10 10 10 10 8 1 7 20 15 5 1 2 6 4 6 1 12 7 6 6 6 7 6 4 8 1 2 7 9 20 20 17 15
4 3 3 8 5 5 3 6 4 6 4 7 9 8 8 7 7 7 5 5 9 10 9 10 8 8 7 4 4 25 9 5 4 4 2 4 5 4 4 7 13 5 4 5 6 4 4 13 9 15 16 13 10 9
3 4 2 4 4 3 4 4 4 3 4 3 5 4 5 5 4 2 4 7 8 9 10 6 11 17 7 8 2 13 6 4 6 8 7 8 7 7 8 10 5 11 8 7 9 11 11 6 9 6 16 8 19 12
3 3 3 4 5 3 2 3 3 3 3 4 4 4 4 3 5 3 6 8 7 2 9 10 8 9 10 10 10 6 22 15 12 9 10 10 4 5 7 6 8 5 7 3 14 8 4 7 7 8 8 7 6 6
2 3 3 4 3 3 4 3 3 3 3 3 3 5 3 2 3 4 8 4 2 3 6 7 8 9 10 10 10 16 20 14 10 7 10 8 12 12 5 10 4 8 8 11 10 7 7 13 10 8 9 10 10 7
4 5 5 4 3 4 3 3 3 3 3 4 7 4 2 2 3 5 2 2 1 1 5 8 11 8 9 8 9 8 14 12 14 11 14 14 13 13 7 6 4 5 10 9 12 10 10 13 12 9 8 8 3 6
4 5 4 4 2 1 2 3 5 3 4 4 4 2 2 2 3 2 2 2 1 5 17 6 18 12 6 3 10 10 16 19 11 12 12 12 12 12 13 8 8 13 7 11 11 8 11 13 10 8 8 11 12 10
4 4 7 5 4 3 3 3 3 3 5 4 3 5 2 2 2 2 4 13 8 9 9 10 11 11 21 10 11 14 22 13 11 13 12 11 11 9 6 7 12 12 7 10 8 7 7 8 9 11 11 11 13 11
4 4 4 7 5 5 5 5 5 5 5 5 6 1 5 4 5 6 15 12 8 12 11 5 9 13 31 17 16 12 11 13 15 11 12 7 5 9 11 13 8 11 14 12 12 5 9 5 6 7 7 11 11 11
8 8 5 5 5 6 6 8 9 9 7 7 8 8 8 6 9 13 13 13 12 10 7 3 10 15 12 5 6 10 11 13 16 16 10 2 7 9 16 20 14 22 11 30 15 11 8 9 11 10 9 10 9 11
1 2 4 7 9 10 11 11 11 12 11 11 11 10 9 10 16 19 15 12 12 14 13 10 13 28 19 11 12 6 9 14 12 10 7 16 20 23 16 9 7 20 34 35 25 13 13 8 8 11 14 14 16 12
4 6 4 5 10 10 9 10 10 11 10 10 11 12 12 11 14 10 15 15 15 14 16 12 9 15 10 7 13 7 6 5 7 9 10 10 12 31 24 27 24 18 1 15 14 17 18 12 12 14 16 16 16 15
8 8 9 8 6 4 7 9 8 8 8 9 10 10 9 11 6 1 6 12 15 17 17 12 12 8 8 9 9 4 2 14 7 5 5 8 4 3 5 9 11 2 8 8 25 40 23 14 13 11 12 12 18 16
Wind_Direction
335 331 332 334 335 334 338 337 331 329 330 332 333 334 338 340 345 350 300 315 328 302 294 296 312 300 293 269 287 24 287 242 242 253 251 268 269 278 297 300 320 277 294 281 249 262 297 27 331 24 356 2 356 344
344 336 331 331 332 335 333 335 336 333 330 330 330 331 332 334 337 346 301 334 328 275 287 308 284 273 277 286 308 311 328 311 349 315 349 330 311 320 317 295 313 296 353 353 332 8 82 50 64 60 25 329 338 331
345 345 338 331 329 330 330 330 331 333 332 330 328 328 328 328 328 330 305 308 306 274 269 246 248 220 237 239 244 272 270 351 33 15 304 302 310 310 287 294 333 336 37 330 344 326 45 40 27 6 340 327 325 324
336 338 342 343 338 331 330 330 328 327 332 330 328 324 321 319 316 314 288 299 303 302 275 161 131 209 214 219 214 234 265 290 285 273 278 281 284 310 296 316 319 305 316 336 303 352 353 329 358 340 314 308 319 327
326 332 337 340 341 336 331 330 328 329 333 330 326 320 316 312 309 306 276 265 259 288 319 309 312 248 187 201 216 233 246 249 263 263 247 252 275 336 327 318 285 302 22 332 334 359 341 335 329 314 329 333 326 321
316 321 327 333 336 339 333 327 328 331 330 329 325 318 311 308 310 310 215 196 227 268 291 287 285 176 232 227 243 228 234 235 252 269 271 269 336 122 273 281 318 21 34 9 355 352 329 318 311 319 318 319 318 320
321 317 321 327 332 337 337 332 331 331 330 327 323 317 309 295 268 259 6 340 273 303 253 275 255 163 208 217 221 217 210 239 251 261 252 256 257 196 263 274 295 38 24 3 337 317 309 312 311 307 301 310 319 311
327 323 319 323 328 332 337 335 331 333 331 328 321 318 310 266 263 265 248 237 256 265 268 274 269 165 164 217 221 216 205 207 233 247 266 272 273 244 251 260 28 18 351 338 335 321 308 309 308 315 316 319 335 315
320 323 325 323 326 329 331 336 335 332 333 326 318 311 253 237 233 83 204 223 238 276 305 261 271 42 173 255 92 184 248 274 246 219 229 224 242 242 69 27 60 8 345 328 311 321 323 322 322 321 319 319 318 331
317 320 322 323 325 328 331 332 336 334 328 306 297 221 206 45 8 323 187 200 203 206 227 254 288 280 278 212 212 209 199 244 255 216 224 227 262 97 106 82 70 16 333 318 314 316 318 322 326 323 323 323 315 331
312 312 315 320 324 327 330 331 331 339 349 325 314 13 353 320 250 217 246 207 188 228 215 238 254 270 353 294 358 325 204 285 251 199 226 212 204 127 92 60 39 332 308 312 316 311 306 316 327 320 324 315 325 354
305 304 307 314 321 323 328 336 338 349 342 313 294 299 278 238 224 240 232 225 198 239 192 227 212 207 135 332 250 218 254 287 269 163 249 230 100 99 97 12 340 328 335 312 310 306 328 335 326 329 329 326 319 326
301 301 303 308 312 315 320 327 335 327 323 263 226 230 204 231 352 222 218 207 212 187 168 190 184 230 108 248 309 267 270 222 316 238 232 56 122 88 39 338 327 335 307 313 310 324 324 312 322 325 324 321 328 305
301 302 304 308 309 307 305 321 334 336 292 259 260 277 238 208 231 223 245 72 93 320 163 187 100 306 127 257 175 251 213 262 238 227 263 126 141 66 348 326 327 324 320 311 302 311 314 295 317 325 322 331 325 25
307 305 309 308 313 315 318 322 325 319 281 278 231 253 234 266 323 296 319 129 227 242 274 87 154 207 189 212 215 239 237 238 213 50 135 130 172 166 313 341 331 320 321 321 316 331 329 317 310 313 331 329 318 238
309 320 277 314 310 309 320 317 286 255 251 258 246 253 267 287 273 268 246 268 357 325 232 71 100 316 202 204 218 225 235 319 85 134 163 149 135 46 332 345 335 318 312 307 319 316 304 298 291 302 314 322 299 251
301 252 288 297 301 307 295 285 225 223 245 237 248 238 259 275 275 246 315 32 331 44 245 212 221 214 240 217 226 217 257 126 149 221 87 80 80 54 25 337 330 326 313 323 326 306 296 317 325 294 283 1 321 140
261 280 283 292 314 317 252 219 257 241 234 248 256 263 223 313 300 269 262 246 180 185 254 200 27 253 213 223 243 27 22 313 85 68 85 114 105 67 3 350 334 1 356 341 334 328 0 18 27 46 38 26 76 104
261 257 281 297 300 300 267 215 254 266 246 260 266 272 274 267 284 279 248 275 268 273 286 165 151 252 229 277 287 235 179 163 89 190 177 122 115 141 114 308 61 28 35 12 19 42 71 76 90 94 69 48 151 181
270 268 259 253 239 258 257 248 251 268 278 304 292 275 283 266 262 253 265 248 249 246 210 170 265 265 281 15 343 327 137 101 290 332 99 156 163 175 164 159 174 141 131 114 109 135 129 111 115 122 181 236 254 241
283 276 248 211 200 227 286 271 245 245 264 266 295 308 280 264 250 248 239 246 250 248 228 227 257 274 145 44 282 293 106 41 14 360 33 107 98 136 178 161 178 260 169 139 45 102 19 223 165 179 176 206 233 239
237 241 151 182 223 208 253 238 259 303 257 276 292 256 251 255 245 256 206 242 249 231 236 235 248 254 262 130 207 265 274 143 191 189 189 181 223 193 188 162 177 216 145 160 183 181 224 184 197 190 213 193 195 196
211 195 200 185 218 220 259 228 239 242 268 300 297 269 251 246 240 224 236 225 232 238 243 234 244 250 246 230 260 294 276 223 243 224 155 232 182 183 198 200 213 175 202 216 168 248 185 196 193 179 220 212 170 161
209 221 224 208 200 256 243 230 219 255 245 235 256 270 273 221 181 217 251 239 233 304 220 230 234 242 241 208 172 175 253 216 232 216 182 227 190 179 178 197 256 187 196 117 156 213 172 146 157 183 221 167 166 181
212 229 219 233 209 226 236 226 214 235 256 263 259 264 268 255 223 236 245 233 93 342 322 295 211 223 224 218 213 211 207 203 213 224 201 189 182 220 207 57 30 323 232 176 193 204 179 195 229 210 210 193 206 220
233 206 201 209 193 219 215 259 228 247 246 237 241 239 265 185 227 252 38 336 179 156 325 295 269 206 215 225 214 190 165 225 220 202 202 228 203 204 179 217 187 251 244 227 232 185 190 217 209 219 215 152 202 237
242 225 198 210 231 294 270 256 261 262 268 240 260 57 12 274 273 19 304 278 284 227 240 287 312 310 334 75 139 156 179 239 214 225 203 216 232 222 198 180 181 228 256 290 283 229 191 224 208 197 220 210 194 208
250 276 233 187 197 211 255 260 263 241 245 259 180 168 193 302 305 268 248 270 242 283 280 260 125 10 302 276 206 221 183 188 193 222 229 220 235 233 221 226 197 170 212 219 265 285 229 219 218 201 202 217 210 210
229 240 220 228 207 203 218 222 244 239 341 336 309 10 190 217 203 213 258 271 290 290 296 293 262 197 194 211 227 179 172 180 174 193 237 237 270 202 59 24 313 296 298 258 198 236 262 313 14 355 255 221 215 217
235 199 217 226 218 222 222 214 253 269 287 293 295 295 297 299 254 246 258 270 275 289 295 37 339 331 305 246 216 193 191 198 204 197 197 197 91 75 20 344 293 263 269 282 205 182 212 243 245 249 243 255 266 241
239 264 230 248 253 247 245 256 260 268 275 275 272 267 266 276 281 277 257 255 269 276 283 263 227 183 223 268 281 217 207 217 213 229 221 162 168 149 141 155 251 254 257 265 282 183 167 174 202 220 223 231 250 266
217 225 239 253 262 266 252 241 247 250 253 252 249 250 251 244 244 250 240 233 232 237 247 264 287 273 265 211 251 164 359 207 230 224 248 246 217 185 198 211 210 225 344 310 248 260 173 182 193 204 207 211 223 235
213 234 239 262 257 234 237 222 239 252 243 250 249 251 255 259 246 285 179 206 213 215 223 229 248 233 264 269 254 64 225 247 172 169 220 226 250 266 300 281 288 45 67 12 286 279 272 230 213 224 231 232 202 217
Height
864 861 858 855 852 849 846 842 839 836 833 829 825 822 819 815 811 807 800 798 796 785 768 764 760 760 753 748 752 744 741 733 738 746 744 739 737 725 725 717 723 732 736 733 728 741 755 722 720 742 747 722 718 712
863 859 856 854 850 847 844 841 837 834 831 827 824 821 818 815 811 808 803 798 796 792 772 768 764 760 757 755 755 748 749 747 742 746 739 732 735 726 730 743 709 737 727 737 737 741 732 723 737 736 734 738 724 721
862 858 854 851 848 845 842 839 835 832 828 825 822 819 816 813 811 809 806 801 795 783 766 758 748 751 753 754 755 758 748 745 744 746 749 743 751 737 748 736 729 718 718 731 734 724 731 733 735 736 735 731 725 721
861 857 853 849 846 842 839 836 833 829 826 823 819 816 814 811 809 807 806 801 799 789 773 742 745 749 750 749 752 752 751 748 746 745 747 745 746 727 739 735 739 730 725 734 736 730 733 727 732 733 730 727 725 723
859 856 852 848 844 840 837 833 830 826 823 820 816 813 810 808 805 802 801 799 798 798 781 764 749 743 746 747 750 750 750 749 748 748 745 745 731 734 733 736 740 724 735 744 748 739 743 741 735 730 724 724 723 724
857 854 850 847 842 838 834 831 827 823 820 816 813 809 806 804 802 802 789 794 795 795 787 767 741 742 744 746 747 747 748 747 746 745 741 733 727 741 753 752 734 727 731 732 740 737 738 737 734 730 726 724 723 722
855 851 848 845 841 836 832 828 824 820 816 812 808 804 802 801 800 799 794 797 795 795 787 768 743 734 741 742 742 742 743 744 743 743 743 740 735 739 746 754 736 733 737 740 740 739 739 735 736 730 724 720 721 721
853 849 846 843 839 835 830 826 821 816 812 807 803 800 798 797 798 796 794 795 795 794 782 770 749 738 738 740 741 735 738 740 741 742 739 740 733 735 748 737 736 741 743 743 741 740 737 734 732 728 722 718 720 721
851 848 844 840 837 833 828 823 818 813 808 804 801 798 798 797 791 794 793 794 795 795 782 759 753 751 735 736 734 738 739 745 731 739 739 737 740 744 738 740 744 745 747 747 744 741 738 736 733 730 725 721 719 720
848 845 842 838 834 831 826 821 816 811 805 802 800 797 788 792 792 793 792 790 790 782 780 769 751 749 740 735 740 743 738 744 744 734 726 735 737 728 732 737 743 745 746 745 746 746 743 741 741 738 730 726 721 717
844 842 839 836 832 829 825 820 815 811 804 801 794 788 793 793 791 784 778 778 773 775 762 756 752 748 745 749 754 744 751 745 749 737 740 738 741 738 738 742 744 746 746 745 744 744 741 737 738 737 734 731 727 717
840 838 836 833 830 827 823 819 815 813 812 811 809 802 796 788 781 777 772 764 762 762 750 747 748 745 752 749 752 757 751 746 752 733 743 743 744 740 742 745 745 746 747 746 743 742 741 740 740 739 737 734 730 725
836 834 832 829 827 824 821 818 816 813 808 806 805 793 781 778 791 777 768 758 753 743 746 745 754 744 749 750 750 755 757 753 739 742 743 748 744 745 747 748 747 748 748 746 744 742 744 744 741 740 740 738 734 730
831 829 827 825 823 821 819 817 814 811 809 798 789 798 776 769 758 750 749 753 751 753 741 741 751 757 749 757 752 762 748 747 752 751 749 749 751 750 750 750 750 750 748 747 745 742 742 744 743 743 741 741 738 734
827 825 824 821 820 819 818 816 814 813 808 796 795 791 764 750 751 747 742 747 751 754 740 745 749 757 753 755 754 755 756 752 742 748 749 744 749 750 750 750 751 751 749 747 745 744 744 744 745 744 745 744 742 740
825 822 820 820 819 818 816 813 812 811 807 802 788 773 758 758 752 749 747 747 746 750 744 750 759 769 753 757 749 749 743 742 748 740 736 743 747 748 749 749 750 750 749 747 745 746 746 747 747 746 746 746 744 741
823 822 820 819 818 816 814 813 808 805 795 790 775 765 761 758 758 753 751 759 762 765 754 748 753 755 738 746 743 733 734 734 732 732 735 743 746 747 748 750 750 750 748 746 746 746 747 748 748 747 746 748 746 743
819 818 817 817 816 813 810 808 800 792 788 777 768 761 759 759 756 749 748 752 757 762 755 756 767 754 740 740 736 735 731 728 728 733 738 740 744 746 747 749 749 749 749 749 748 748 750 750 749 749 750 747 745 746
815 814 814 815 816 814 808 800 797 791 778 769 762 760 757 757 755 753 749 752 749 748 751 756 769 753 738 729 731 729 729 729 731 732 734 740 743 746 747 748 749 750 750 750 750 749 750 751 753 753 751 751 752 749
809 809 810 812 813 811 803 798 797 794 782 766 762 759 754 753 751 749 748 746 747 748 752 759 757 734 729 733 732 730 725 729 729 729 737 739 741 744 745 745 746 748 749 750 751 752 752 754 756 755 756 755 754 752
804 802 803 806 808 809 804 798 795 789 778 767 757 757 753 748 745 745 744 744 747 743 739 737 736 728 730 733 739 736 727 727 728 733 732 735 736 739 742 743 745 745 745 745 747 749 751 749 753 756 757 752 752 750
801 802 802 804 804 803 801 796 791 784 776 759 754 748 746 743 740 738 738 743 739 731 727 728 727 728 727 735 739 734 727 728 730 731 734 734 735 734 736 738 742 742 742 744 744 746 746 748 747 749 749 750 749 750
801 802 801 801 801 799 795 790 788 779 768 761 754 746 736 733 731 731 733 726 724 722 721 722 724 724 727 729 732 730 728 728 727 727 729 730 730 731 732 733 734 736 738 740 742 743 743 744 745 746 745 745 748 746
801 800 797 795 796 791 787 782 780 777 771 764 752 744 735 730 729 733 727 718 714 715 715 717 717 718 719 721 732 731 728 725 723 723 726 726 726 728 729 732 730 730 732 733 739 738 737 739 741 742 741 741 742 744
800 796 795 791 787 787 781 774 772 770 762 756 753 743 731 722 727 726 718 709 716 719 717 715 710 710 710 708 711 714 718 718 719 720 721 723 727 727 726 730 730 730 727 730 731 732 734 736 736 736 737 738 739 739
794 787 788 779 778 779 773 769 765 761 758 753 743 727 720 724 730 719 717 716 715 721 719 719 708 703 702 702 701 703 710 713 713 714 719 718 719 720 722 724 727 728 728 727 727 727 732 732 734 734 734 737 739 740
787 777 776 773 777 775 774 770 766 764 755 738 728 732 734 735 723 722 714 712 712 714 716 713 704 705 703 700 701 705 710 712 711 712 713 715 715 716 718 721 724 725 726 726 724 723 726 726 726 729 730 731 733 735
779 769 765 765 772 772 769 766 761 752 738 721 720 733 735 736 736 730 722 712 708 706 707 706 705 703 703 704 702 700 703 706 710 711 711 712 713 713 715 716 717 719 721 722 723 720 720 722 723 725 726 727 729 731
773 766 764 764 767 767 765 761 748 733 726 724 725 724 733 727 721 720 715 709 706 702 699 699 698 699 703 699 697 696 698 702 706 710 711 709 711 711 715 720 722 719 720 719 718 720 720 722 723 723 722 723 724 727
758 758 760 758 758 755 750 745 735 728 725 724 720 717 714 712 712 710 708 706 703 701 699 701 697 698 695 691 692 693 695 697 698 701 703 708 713 715 714 721 722 722 724 716 714 715 717 718 720 722 723 723 722 723
754 753 752 747 742 736 734 733 730 728 725 721 718 717 716 713 709 706 703 703 704 702 699 697 694 705 698 698 693 691 692 694 695 698 701 705 708 715 718 718 717 717 716 717 715 710 712 715 716 718 719 720 720 721
751 750 749 746 737 727 724 724 722 717 713 712 710 706 704 702 702 695 695 697 698 699 697 695 696 693 689 691 691 691 692 692 694 695 697 697 699 701 703 708 709 709 713 714 708 705 706 709 710 712 713 715 717 718
743 742 740 737 725 716 709 711 708 707 705 704 700 697 695 693 691 685 686 689 692 692 691 691 691 691 692 692 690 691 693 697 695 695 695 696 697 699 700 701 702 703 702 706 711 708 706 704 704 705 706 707 709 711